Theta_e
297 297 296 295 296 298 295 286 280 295 297 286 285 285 287 291 285 288 286 286 286 283 283 280 278 279 281 284 283 279 280 278 271 274 276 278 279 277 274 271 268 268 266 271
297 297 297 296 296 296 292 282 283 293 293 281 282 285 286 288 284 283 285 284 287 285 285 283 281 281 284 284 282 280 281 273 269 275 276 277 276 277 275 268 267 268 267 275
297 297 297 296 296 296 292 284 275 285 287 287 284 283 284 284 287 286 289 287 286 284 282 284 280 280 283 284 283 286 283 277 274 277 278 276 273 276 274 270 266 267 271 272
297 297 296 296 296 296 290 284 277 279 278 280 282 285 284 282 283 285 287 284 285 284 281 281 280 281 281 283 285 282 279 274 273 275 276 275 276 275 274 272 271 273 281 272
297 296 296 296 296 296 287 280 280 278 272 279 280 282 281 283 283 282 281 284 284 285 281 282 279 282 281 281 282 280 280 276 275 274 275 274 273 276 276 276 274 272 275 275
296 296 296 295 296 295 285 286 285 281 279 273 275 276 279 281 285 284 286 285 282 282 284 283 284 285 285 284 281 279 278 276 274 272 274 272 270 275 276 275 274 275 272 279
296 294 294 295 295 295 287 287 284 278 274 276 276 278 280 278 279 278 285 286 286 283 288 287 285 283 282 283 280 282 276 276 273 268 274 270 280 279 279 278 279 277 277 279
295 294 294 295 295 295 289 288 284 280 274 277 277 277 278 279 280 279 282 285 288 288 285 281 277 276 278 275 277 278 280 276 269 269 264 274 281 275 276 275 279 281 280 282
295 293 294 295 294 295 291 287 289 283 277 272 279 276 277 275 276 277 282 283 286 288 284 279 273 270 271 269 272 279 277 277 275 264 267 266 279 276 277 277 275 279 280 280
294 293 293 294 294 293 290 286 290 285 277 280 280 275 275 280 278 276 279 282 282 285 280 277 273 271 269 269 269 270 272 271 271 262 264 270 279 278 278 275 281 278 280 280
294 293 293 293 294 293 290 284 289 285 279 281 282 282 277 278 279 275 280 280 280 279 280 279 277 267 269 268 272 272 272 269 265 264 263 268 278 277 277 282 280 279 279 279
295 294 293 293 294 294 293 284 288 290 282 281 284 284 284 285 284 281 281 280 279 281 279 277 275 274 269 269 269 275 273 274 271 272 274 280 279 281 281 280 281 280 280 280
294 294 294 293 293 294 293 286 285 286 281 280 281 279 285 287 287 289 278 280 284 282 280 277 277 272 273 268 269 272 274 276 274 274 280 279 279 281 281 281 282 282 282 282
294 294 293 293 293 293 293 287 288 285 280 275 276 282 279 285 288 289 288 284 285 283 282 277 276 274 278 273 275 274 275 276 272 273 279 280 281 281 282 283 283 282 282 282
294 293 292 293 293 293 291 289 288 288 281 274 274 274 278 285 286 285 287 286 284 283 281 279 278 276 276 270 271 268 274 275 276 278 283 283 285 284 284 282 283 283 282 282
293 292 292 292 291 293 286 281 287 290 288 278 268 272 273 282 286 285 285 285 285 284 282 281 279 279 277 271 270 277 278 279 281 283 282 283 282 282 284 283 283 282 281 282
292 292 292 292 291 288 277 274 281 291 289 278 270 265 272 277 284 285 285 286 285 284 283 282 280 276 279 277 271 282 280 281 282 281 279 282 281 284 283 282 281 277 276 278
291 291 291 292 291 289 284 286 291 291 284 280 271 265 268 282 278 279 285 282 283 283 284 281 278 276 275 275 274 280 283 283 280 281 281 286 282 277 281 276 273 274 278 279
291 290 290 284 283 280 279 290 292 289 283 274 263 263 263 280 276 280 280 283 279 282 280 278 281 275 277 277 278 276 282 282 285 277 275 273 274 282 282 281 267 273 280 280
290 280 271 265 270 287 288 281 279 279 280 278 268 263 264 277 278 277 278 279 278 275 278 278 277 274 269 273 279 284 286 284 278 276 280 270 276 280 281 280 281 280 282 282
273 265 265 272 285 277 277 270 274 276 273 272 267 273 270 277 274 276 278 276 275 270 269 271 271 270 273 278 279 285 282 284 283 284 283 276 277 278 282 283 278 276 274 276
274 274 274 270 267 265 266 269 272 273 266 271 269 270 275 275 277 278 276 272 275 266 266 268 269 273 276 280 284 287 279 281 280 269 270 267 267 266 268 268 268 267 268 268
270 265 264 266 263 264 266 265 268 270 273 273 272 274 276 273 276 276 273 271 271 265 270 266 270 271 271 275 272 268 261 262 262 263 260 259 259 258 257 261 261 261 262 264
263 260 259 260 261 265 269 270 271 274 271 271 275 272 275 277 275 276 272 261 265 269 263 267 270 269 266 263 260 264 263 259 259 259 257 257 256 258 258 256 258 257 260 262
262 261 258 258 265 263 267 270 270 275 276 277 272 272 273 272 269 268 264 265 262 267 268 268 267 265 260 261 260 259 259 258 258 256 256 256 255 255 258 257 257 256 258 259
261 264 260 257 261 265 264 267 271 275 277 278 279 276 273 272 269 269 271 266 266 267 261 264 263 263 260 258 258 257 255 255 255 254 254 255 255 255 256 256 257 259 256 260
259 260 253 264 259 265 261 264 271 275 275 272 273 272 267 267 266 273 272 263 262 260 262 258 257 257 258 257 257 257 256 256 254 254 255 255 255 254 259 260 259 259 261 262
Wind_Speed
19 20 18 18 23 23 9 1 3 2 1 5 3 12 6 4 4 2 2 4 4 8 8 6 3 7 4 1 4 6 4 5 4 4 1 0 1 5 5 6 5 1 3 11
21 21 17 17 19 20 2 3 4 2 1 7 12 2 4 3 4 6 7 8 5 2 7 4 7 4 2 1 2 5 4 2 3 2 2 3 5 5 4 5 4 7 6 9
21 23 18 17 17 16 7 2 3 2 3 4 4 14 16 5 3 3 3 5 5 3 4 2 5 7 2 4 1 1 2 2 6 6 3 5 6 6 7 6 4 5 10 8
22 20 18 19 19 15 2 3 4 5 3 6 11 5 4 18 12 3 4 4 7 7 5 4 5 3 2 1 2 2 2 4 2 3 3 2 3 5 12 10 7 9 11 12
23 21 18 21 19 19 2 4 2 4 3 3 9 13 21 16 12 12 5 7 10 10 8 10 10 8 5 6 2 5 1 1 1 3 1 3 5 7 13 16 3 13 13 22
23 24 25 22 22 18 4 2 3 3 8 4 3 4 6 10 12 7 15 15 9 13 8 4 3 5 5 5 9 8 5 5 3 6 2 1 8 14 18 8 7 10 11 20
24 23 22 27 26 23 4 4 1 3 10 9 12 8 6 8 8 12 7 9 16 6 16 12 9 8 6 6 2 2 6 4 1 3 0 5 7 2 7 14 10 16 10 13
24 18 21 23 24 25 5 3 4 3 5 8 10 13 14 13 14 17 20 8 5 16 8 4 5 1 3 0 1 4 2 6 2 3 4 7 9 4 8 10 11 22 24 17
25 20 18 21 16 20 8 4 4 3 4 7 13 13 13 12 9 15 9 1 11 9 3 4 7 7 5 4 3 2 5 4 3 2 5 8 6 3 4 4 7 5 12 11
23 20 16 17 14 11 9 4 7 3 6 9 3 7 9 6 3 4 8 5 4 2 6 3 4 5 1 8 12 8 6 2 7 2 3 11 8 6 6 5 7 2 7 5
25 21 18 19 18 18 12 5 10 6 6 9 6 12 6 1 2 6 3 5 2 0 8 6 5 4 8 5 5 8 10 10 6 4 2 12 9 7 8 6 1 2 4 5
25 24 23 23 22 23 20 8 5 8 7 6 4 9 9 6 4 3 4 8 6 5 4 3 3 3 1 6 6 3 6 9 10 13 12 2 9 6 8 2 2 3 4 6
26 25 22 25 26 27 25 11 5 4 6 8 6 11 19 6 10 11 7 4 4 7 3 4 3 5 6 6 6 4 6 4 3 4 7 16 10 8 7 6 10 6 7 6
25 22 21 23 25 22 22 11 9 8 2 6 6 3 4 5 11 15 14 12 4 1 1 4 4 4 4 4 4 4 4 10 6 6 9 8 10 11 11 9 8 9 8 9
25 19 19 20 20 22 15 8 8 10 9 3 3 2 8 6 12 18 16 13 7 5 4 5 5 3 5 1 3 3 6 9 7 8 9 4 3 3 4 6 8 10 9 6
21 14 15 16 13 19 1 3 3 9 8 3 2 4 4 5 7 12 15 13 8 6 4 4 3 1 5 5 5 6 10 7 6 5 3 5 5 8 8 9 11 10 7 10
17 14 14 15 5 0 4 5 4 18 8 2 1 4 5 5 5 5 6 10 5 5 4 5 4 1 5 2 5 5 10 12 9 6 1 12 6 9 7 9 8 5 6 7
14 12 9 12 5 3 2 3 3 10 4 3 4 6 3 7 5 4 5 5 5 5 4 1 2 3 2 4 6 5 6 9 6 11 14 18 4 7 10 4 2 5 10 8
10 4 4 4 2 2 3 4 17 4 3 3 4 6 7 4 3 1 0 4 4 2 4 4 6 4 7 7 9 7 12 11 14 4 5 5 6 15 12 11 1 7 13 11
13 6 5 4 4 4 2 3 4 7 6 6 7 1 3 4 4 3 4 3 5 5 5 2 3 5 2 6 8 11 10 12 7 2 10 3 9 11 11 12 10 10 12 12
4 3 3 4 5 3 1 3 6 6 6 6 5 10 5 3 5 3 4 4 3 4 4 5 3 5 7 10 11 18 10 10 13 13 8 5 5 5 11 14 6 6 6 8
6 5 2 3 5 3 2 4 5 6 5 1 6 5 6 3 2 2 5 5 2 5 3 4 4 7 10 13 19 21 8 11 9 2 3 3 5 4 6 6 5 5 5 5
5 6 5 4 3 2 3 4 4 4 2 2 3 6 5 2 2 2 3 6 4 2 2 5 7 5 6 9 1 3 4 5 2 3 2 2 3 4 2 6 5 7 7 7
5 5 4 3 4 3 3 3 9 7 1 4 4 3 3 3 2 2 1 2 3 4 1 8 5 4 5 4 1 4 2 3 3 2 2 3 3 5 5 4 5 5 7 8
3 4 3 4 2 5 4 4 5 4 4 3 2 4 4 4 3 1 5 4 4 7 7 4 3 6 4 4 2 4 4 4 4 2 3 4 4 4 6 5 5 4 6 6
4 2 2 4 2 4 4 3 5 3 6 3 0 4 4 2 4 4 3 6 7 2 4 4 6 7 6 5 5 4 2 3 3 2 2 4 4 3 4 6 6 6 4 6
4 4 2 3 4 4 4 3 5 5 3 1 2 4 2 1 2 3 3 2 3 3 4 3 3 4 6 5 4 4 5 4 4 2 2 3 4 2 4 9 7 6 6 5
Wind_Direction
313 317 322 331 330 323 335 262 272 338 180 210 208 231 189 196 184 116 177 146 163 191 175 156 220 231 213 76 169 169 195 126 159 209 88 319 190 174 156 129 223 145 142 270
301 304 325 320 321 314 328 244 254 212 337 228 225 253 268 226 171 182 187 197 190 157 163 202 192 208 28 125 204 160 207 243 80 6 23 358 220 187 123 115 96 201 143 258
307 305 302 300 308 318 310 255 271 241 189 277 250 233 239 234 216 202 189 151 94 147 166 201 197 218 64 341 206 42 110 168 170 191 160 124 191 179 167 135 130 182 228 286
294 298 295 296 293 298 64 266 247 180 276 238 263 259 267 226 229 245 156 197 196 188 160 165 218 155 136 291 192 94 172 217 173 254 225 186 203 172 176 199 194 187 262 208
293 292 288 280 280 283 198 247 270 319 271 249 290 272 239 246 232 186 223 237 181 206 176 187 188 158 183 183 156 186 329 321 107 278 216 199 259 224 197 215 236 261 272 286
293 289 285 278 275 264 235 205 209 211 263 204 221 233 352 282 268 242 227 198 178 213 217 129 61 96 120 147 151 153 156 153 128 261 44 306 291 226 198 195 207 191 201 235
291 294 299 287 263 247 176 199 186 233 274 237 234 232 225 298 305 321 245 219 194 144 107 91 75 68 88 118 78 95 138 125 105 217 81 255 246 147 192 206 231 211 262 254
286 285 295 287 265 258 201 186 185 239 247 229 256 257 256 252 272 295 269 214 175 152 111 121 126 92 151 127 42 148 185 123 151 180 203 299 290 195 157 171 270 205 220 248
279 280 281 288 269 250 250 187 166 226 280 225 231 237 244 256 256 297 258 53 172 153 129 169 172 186 165 182 88 74 96 73 121 141 178 215 238 166 171 168 296 193 185 227
274 274 264 277 263 245 264 247 179 202 265 247 173 224 237 196 165 257 315 141 219 250 147 164 155 209 194 167 166 167 133 118 194 185 244 285 237 159 156 99 237 135 185 185
268 268 260 257 255 246 238 235 177 199 253 267 219 230 196 188 171 192 294 297 201 140 186 182 192 144 212 112 157 180 161 150 177 114 109 265 147 81 184 208 275 154 193 204
261 262 254 255 258 259 254 243 193 187 225 273 227 244 248 211 173 158 170 277 339 243 152 194 134 136 161 149 204 158 210 178 178 188 206 254 213 205 216 153 177 223 204 197
262 260 261 265 268 268 261 245 182 173 236 262 216 216 238 188 192 185 226 232 187 245 338 189 165 179 137 167 228 136 239 169 209 121 237 234 233 266 246 220 232 231 239 236
264 260 268 273 274 267 269 246 196 194 204 248 243 313 254 190 190 194 211 233 199 222 5 277 175 178 179 202 156 167 174 136 166 269 278 282 238 223 234 241 249 259 255 230
257 265 275 279 274 267 279 228 187 188 199 213 226 287 250 192 184 199 208 218 225 249 245 246 215 142 131 355 69 238 190 170 170 216 227 192 211 139 169 215 241 237 235 270
256 262 266 276 281 276 156 180 156 176 182 214 209 283 285 185 189 197 202 209 209 216 224 222 249 223 122 161 198 238 198 195 194 222 230 225 267 268 216 222 233 243 224 226
242 245 251 272 263 220 144 190 216 177 155 187 191 282 266 167 176 202 204 203 195 211 228 219 219 205 128 156 194 218 208 215 236 229 0 291 192 247 212 223 242 231 242 244
218 235 249 284 198 160 293 266 190 127 154 170 199 250 24 186 183 195 193 186 177 212 220 159 179 123 95 237 233 205 191 212 226 236 215 241 319 296 274 240 195 248 256 257
198 207 75 47 99 182 219 252 170 176 190 248 126 153 221 182 231 176 170 194 159 77 221 209 173 146 221 201 182 199 225 189 221 230 244 269 228 264 272 275 198 241 273 270
118 64 58 330 230 245 335 32 173 194 196 208 197 105 185 166 160 203 212 187 162 184 206 137 196 243 288 233 215 206 215 199 151 138 274 279 261 242 254 246 253 240 260 272
52 93 198 237 320 57 185 238 221 184 205 198 193 174 150 229 153 223 253 174 177 140 229 153 210 265 227 202 215 234 178 208 219 216 251 195 232 301 292 282 265 259 256 258
161 160 93 27 50 37 134 244 282 257 220 209 159 178 149 150 125 184 219 140 179 198 181 102 247 239 223 188 217 234 181 210 243 147 267 289 282 277 283 291 276 269 285 298
41 46 44 55 299 73 207 259 265 287 354 192 235 143 126 99 205 190 225 143 148 93 83 230 234 261 248 228 0 30 25 79 62 337 35 22 299 309 240 292 284 297 293 278
74 85 320 127 299 255 229 274 297 294 251 250 207 99 128 114 184 320 56 310 73 85 194 235 239 261 303 336 11 120 98 45 53 349 349 316 323 307 300 267 276 296 306 303
91 76 258 252 237 248 238 241 266 253 255 229 89 72 91 104 241 33 128 140 178 188 214 230 282 303 302 347 29 62 53 28 59 324 337 329 323 322 319 325 324 315 320 329
67 25 11 292 6 301 350 304 284 270 331 351 61 169 147 202 143 161 192 140 189 213 251 296 334 346 356 344 357 20 16 36 10 2 356 330 328 322 311 326 0 4 2 24
40 286 176 201 244 228 229 218 279 302 304 23 353 45 176 158 40 60 57 128 266 276 298 300 317 297 305 337 339 12 28 27 13 356 3 10 333 355 45 41 359 3 17 30